Regional Weather Roundup
Issued by NWS

Home | Current Version | Previous Version | Text Only | Print | Product List | Glossary Off
Versions: 1 2 3 4 5 6 7 8 9 10 11 12 13 14 15 16 17 18 19 20 21 22 23 24 25 26 27 28 29 30 31 32 33 34 35 36 37 38 39 40 41 42 43 44 45 46 47 48 49 50

000
ASUS43 KMKX 190521
RWRWI

WISCONSIN REGIONAL WEATHER ROUNDUP
NATIONAL WEATHER SERVICE MILWAUKEE/SULLIVAN WI
1200 AM CDT FRI SEP 19 2014

NOTE: "FAIR" INDICATES FEW OR NO CLOUDS BELOW 12,000 FEET WITH NO
SIGNIFICANT WEATHER AND/OR OBSTRUCTIONS TO VISIBILITY.

WIZ001-002-006>008-014>016-023>028-190600-
NORTHWEST WISCONSIN

CITY           SKY/WX    TMP DP  RH WIND       PRES   REMARKS
SUPERIOR ARPT  CLOUDY    49  48  95 E6        30.00F
ASHLAND        MOCLDY    40  38  93 CALM      30.04S FOG
HAYWARD        PTCLDY    53  51  93 S8        30.04R
SIREN          CLEAR     55  53  92 SE9       30.01R
RICE LAKE      CLEAR     52  50  92 SE9       30.05F
LADYSMITH      CLEAR     51  49  94 SE7       30.08S
EAU CLAIRE     CLEAR     54  51  90 S8        30.05F
MENOMONIE      CLEAR     53  52  96 SE5       30.05R
NEW RICHMOND   CLEAR     56  55  95 SE8       30.02S
OSCEOLA        CLEAR     58  57  98 SE9       30.02F
$$

WIZ003>005-009-010-017-018-190600-
NORTH CENTRAL WISCONSIN

CITY           SKY/WX    TMP DP  RH WIND       PRES   REMARKS
WOODRUFF       PTCLDY    52  50  92 S8        30.09F
RHINELANDER    CLEAR     46  45  96 SE5       30.11F
EAGLE RIVER    CLEAR     45  45 100 S5        30.10F FOG
LAND O LAKES   CLEAR     46  45  98 S3        30.11F
PHILLIPS       CLEAR     49  47  94 S8        30.06F
TOMAHAWK       CLEAR     46  45  95 SE3       30.11F FOG
MEDFORD        PTCLDY    48  47  97 SE8       30.09F FOG
MERRILL        CLEAR     47  47  99 SE6       30.12F FOG
$$

WIZ029-030-035-036-043>047-190600-
CENTRAL WISCONSIN

CITY           SKY/WX    TMP DP  RH WIND       PRES   REMARKS
WAUSAU         CLEAR     46  45  96 SE5       30.12F FOG
MOSINEE        CLEAR     45  45 100 SE6       30.14F FOG
MARSHFIELD     CLEAR     49  47  93 SE5       30.10F FOG
STEVENS POINT  CLEAR     44  44  98 SE5       30.14F FOG
WAUPACA        CLEAR     48  47  95 CALM      30.16S FOG
WAUTOMA        CLEAR     44  43  97 CALM      30.16S
WISC RAPIDS    CLEAR     50  49  96 SE8       30.14S
CAMP DOUGLAS   CLEAR     46  46 100 SE6       30.11F
$$

WIZ011>013-019>022-031-037>040-048>050-190600-
NORTHEAST WISCONSIN

CITY           SKY/WX    TMP DP  RH WIND       PRES   REMARKS
ANTIGO         CLEAR     45  45  99 SE10      30.14F FOG
STURGEON BAY   CLEAR     45  43  93 CALM      30.18S
GREEN BAY      CLEAR     44  44 100 CALM      30.17S FOG
MANITOWOC      CLEAR     45  44  97 CALM      30.18S
APPLETON       CLEAR     50  46  87 SE7       30.17S
CLINTONVILLE   CLEAR     45  45 100 CALM      30.16S FOG
OSHKOSH        CLEAR     48  47  96 CALM      30.16S
$$

WIZ032>034-041-042-053>061-190600-
SOUTHWEST WISCONSIN

CITY           SKY/WX    TMP DP  RH WIND       PRES   REMARKS
LA CROSSE      CLEAR     58  53  84 SE6       30.07F
SPARTA         CLEAR     48  48 100 CALM      30.10F FOG
VIROQUA        FAIR      54  54 100 SE8       30.10F
BOSCOBEL       CLEAR     53  51  93 VRB3      30.11F FOG
PRAIRIE DU CHI PTCLDY    57  51  79 E7        30.09F
PLATTEVILLE    FAIR      55  53  92 CALM      30.14R
$$

WIZ056-057-062-063-064-067-068-190600-
SOUTH CENTRAL WISCONSIN

CITY           SKY/WX    TMP DP  RH WIND       PRES   REMARKS
BARABOO/DELLS  CLEAR     51  49  94 CALM      30.14R FOG
LONE ROCK      CLEAR     55  50  83 E3        30.14R
WATERTOWN      CLOUDY    49  49 100 CALM      30.16R FOG
MADISON        CLEAR     51  49  92 SE5       30.15S
MIDDLETON      MOCLDY    54  54  99 SE5       30.15S
MONROE         CLEAR     52  50  93 E6        30.13F FOG
JANESVILLE     CLEAR     50  46  87 CALM      30.15S FOG
$$

WIZ051-052-058>065-066-070>072-190600-
SOUTHEAST WISCONSIN

CITY           SKY/WX    TMP DP  RH WIND       PRES   REMARKS
MILWAUKEE      CLEAR     51  49  92 CALM      30.18R
WAUKESHA       CLOUDY    50  50 100 E6        30.18S FOG
MILWAUKEE/TIMM CLEAR     52  50  93 CALM      30.18S
RACINE         MOCLDY    52  50  93 CALM      30.19R
BURLINGTON       N/A     44  44 100 CALM      30.17S FOG
KENOSHA        PTCLDY    49  48  97 E5        30.17F FOG
FOND DU LAC    CLEAR     48  45  89 S6        30.17S
SHEBOYGAN      CLEAR     42  42 100 CALM      30.18R
WEST BEND      FOG       43  41  93 CALM      30.18R VSB<1/4
JUNEAU         CLOUDY    48  47  97 SE3       30.18R FOG
$$

LSZ147-162-190600-
LAKE SUPERIOR

STATION/POSITION TIME  TEMP    WIND        PRES    WAVE
                       AIR SEA DIR/SP/G            HT/PER
                 (UTC) (F)     (DEG/KT/KT) (MB)    (FT/S)
W MID LAKE BUOY  0450   48 47  140/  8/ 10 1017.1F   1/ 4
DEVILS ISLAND    0500   50      90/  3/  3 1016.9F
PORT WING        0440   46      60/  6/  8 1016.9F
SAXON HARBOR     0400   51     190/  5/  9 1016.6
$$

LMZ867-665-643>646-190600-
LAKE MICHIGAN

STATION/POSITION TIME  TEMP    WIND        PRES    WAVE
                       AIR SEA DIR/SP/G            HT/PER
                 (UTC) (F)     (DEG/KT/KT) (MB)    (FT/S)
N MID LAKE BUOY  0450   56 58  150/  6/  8 1021.9F   0
NORTHPORT PIER   0400   50     170/  2/  4 1022.0R
SISTER BAY       0427   49        CALM       N/A
KEWAUNEE LAKESHO 0500   46     300/  3/  4 1020.7F
SHEBOYGAN LAKESH 0500   51 49  270/  2/  2 1022.4F
PORT WASHINGTON  0400   49     270/  3/  4 1022.4S
ATWATER BUOY     0500   58     100/  6/  6 1022.6F
MILWAUKEE LAKESH 0500   58      80/  7/  9   N/A
S MID LAKE BUOY  0450   61 63  110/ 12/ 16 1022.0R   2/ 5
KENOSHA   LAKESH 0500   60      80/  8/  9 1021.7R
$$

TC  - TEMPERATURE IN CELSIUS
VSB - VISIBILITY IN STATUTE MILES
WCI - WIND CHILL INDEX
HX  - HEAT INDEX




USA.gov is the U.S. government's official web portal to all federal, state and local government web resources and services.